EN

Hourly Weather Abancay

Today, 15 June, Tuesday

Time Temperature Precipitation Wind Pressure Humidity
00:00 +11°C° 0 mm 1 mps 543 mmHg 90%
01:00 +11°C° 0 mm 1 mps 543 mmHg 91%
02:00 +11°C° 0 mm 1 mps 543 mmHg 90%
03:00 +11°C° 0 mm 1 mps 543 mmHg 89%
04:00 +12°C° 0 mm 1 mps 543 mmHg 87%
05:00 +11°C° 0 mm 0 mps 544 mmHg 86%
06:00 +11°C° 0 mm 0 mps 544 mmHg 84%
07:00 +11°C° 0 mm 0 mps 545 mmHg 82%
08:00 +13°C° 0 mm 1 mps 545 mmHg 74%
09:00 +15°C° 0 mm 1 mps 546 mmHg 65%
10:00 +16°C° 0 mm 1 mps 547 mmHg 57%
11:00 +17°C° 0 mm 2 mps 546 mmHg 53%
12:00 +18°C° 0 mm 2 mps 546 mmHg 49%
13:00 +19°C° 0 mm 2 mps 546 mmHg 46%
14:00 +19°C° 0 mm 2 mps 545 mmHg 46%
15:00 +18°C° 0 mm 2 mps 545 mmHg 47%
16:00 +18°C° 0 mm 2 mps 544 mmHg 48%
17:00 +16°C° 0 mm 2 mps 544 mmHg 59%
18:00 +15°C° 0 mm 2 mps 544 mmHg 70%
19:00 +13°C° 0 mm 2 mps 543 mmHg 81%
20:00 +12°C° 0 mm 1 mps 543 mmHg 85%
21:00 +11°C° 0 mm 1 mps 543 mmHg 89%
22:00 +10°C° 0 mm 1 mps 543 mmHg 94%
23:00 +11°C° 0 mm 1 mps 543 mmHg 93%

Tomorrow, 16 June, Wednesday

Time Temperature Precipitation Wind Pressure Humidity
00:00 +11°C° 0 mm 1 mps 544 mmHg 92%
01:00 +11°C° 0 mm 1 mps 544 mmHg 91%
02:00 +11°C° 0.1 mm 1 mps 544 mmHg 91%
03:00 +11°C° 0.1 mm 1 mps 543 mmHg 91%
04:00 +10°C° 0.1 mm 0 mps 543 mmHg 91%
05:00 +10°C° 0 mm 0 mps 543 mmHg 89%
06:00 +10°C° 0 mm 0 mps 544 mmHg 88%
07:00 +10°C° 0 mm 0 mps 544 mmHg 87%
08:00 +11°C° 0 mm 0 mps 545 mmHg 79%
09:00 +14°C° 0 mm 1 mps 545 mmHg 71%
10:00 +15°C° 0 mm 1 mps 546 mmHg 63%
11:00 +16°C° 0 mm 2 mps 545 mmHg 60%
12:00 +17°C° 0 mm 2 mps 545 mmHg 57%
13:00 +18°C° 0 mm 3 mps 545 mmHg 53%
14:00 +18°C° 0 mm 3 mps 544 mmHg 53%
15:00 +18°C° 0 mm 2 mps 544 mmHg 54%
16:00 +17°C° 0 mm 2 mps 544 mmHg 54%
17:00 +16°C° 0 mm 2 mps 543 mmHg 63%
18:00 +14°C° 0 mm 2 mps 543 mmHg 73%
19:00 +12°C° 0 mm 1 mps 542 mmHg 83%
20:00 +11°C° 0 mm 1 mps 543 mmHg 86%
21:00 +11°C° 0 mm 1 mps 543 mmHg 90%
22:00 +10°C° 0 mm 1 mps 543 mmHg 93%
23:00 +10°C° 0 mm 1 mps 543 mmHg 93%

Day after tomorrow, 17 June, Thursday

Time Temperature Precipitation Wind Pressure Humidity
00:00 +11°C° 0 mm 1 mps 543 mmHg 92%
01:00 +11°C° 0 mm 1 mps 543 mmHg 91%
02:00 +11°C° 0 mm 1 mps 543 mmHg 91%
03:00 +11°C° 0 mm 1 mps 543 mmHg 90%
04:00 +11°C° 0 mm 1 mps 543 mmHg 90%
05:00 +11°C° 0 mm 1 mps 544 mmHg 89%
06:00 +10°C° 0 mm 0 mps 544 mmHg 88%
07:00 +10°C° 0 mm 0 mps 544 mmHg 88%
08:00 +12°C° 0 mm 1 mps 545 mmHg 80%
09:00 +14°C° 0 mm 1 mps 545 mmHg 73%
10:00 +15°C° 0 mm 2 mps 546 mmHg 65%
11:00 +16°C° 0.1 mm 2 mps 545 mmHg 61%
12:00 +17°C° 0.1 mm 2 mps 545 mmHg 57%
13:00 +18°C° 0.1 mm 3 mps 545 mmHg 54%
14:00 +17°C° 0 mm 3 mps 545 mmHg 55%
15:00 +17°C° 0 mm 3 mps 544 mmHg 57%
16:00 +17°C° 0 mm 3 mps 544 mmHg 58%
17:00 +15°C° 0.1 mm 2 mps 544 mmHg 67%
18:00 +14°C° 0.1 mm 2 mps 543 mmHg 76%
19:00 +12°C° 0.1 mm 1 mps 543 mmHg 85%
20:00 +12°C° 0 mm 1 mps 543 mmHg 88%
21:00 +11°C° 0 mm 1 mps 543 mmHg 90%
22:00 +10°C° 0 mm 1 mps 543 mmHg 93%
23:00 +10°C° 0 mm 1 mps 543 mmHg 92%

18 June, Friday

Time Temperature Precipitation Wind Pressure Humidity
00:00 +10°C° 0 mm 1 mps 543 mmHg 92%
01:00 +10°C° 0 mm 1 mps 543 mmHg 91%
02:00 +10°C° 0 mm 1 mps 543 mmHg 91%
03:00 +9°C° 0 mm 0 mps 543 mmHg 91%
04:00 +9°C° 0 mm 0 mps 543 mmHg 91%
05:00 +9°C° 0 mm 0 mps 544 mmHg 90%
06:00 +10°C° 0 mm 0 mps 544 mmHg 88%
07:00 +10°C° 0 mm 0 mps 545 mmHg 86%
08:00 +12°C° 0 mm 1 mps 545 mmHg 80%
09:00 +13°C° 0 mm 1 mps 546 mmHg 73%
10:00 +14°C° 0 mm 1 mps 546 mmHg 67%
11:00 +15°C° 0 mm 1 mps 546 mmHg 60%
12:00 +17°C° 0 mm 2 mps 546 mmHg 54%
13:00 +18°C° 0 mm 2 mps 546 mmHg 47%
14:00 +18°C° 0 mm 2 mps 545 mmHg 47%
15:00 +18°C° 0 mm 2 mps 545 mmHg 47%
16:00 +18°C° 0 mm 2 mps 545 mmHg 47%
17:00 +16°C° 0 mm 2 mps 544 mmHg 58%
18:00 +14°C° 0 mm 1 mps 544 mmHg 68%
19:00 +12°C° 0 mm 1 mps 543 mmHg 79%
20:00 +11°C° 0 mm 1 mps 543 mmHg 82%
21:00 +11°C° 0 mm 1 mps 543 mmHg 85%
22:00 +10°C° 0 mm 1 mps 543 mmHg 88%
23:00 +10°C° 0 mm 1 mps 543 mmHg 89%

19 June, Saturday

Time Temperature Precipitation Wind Pressure Humidity
00:00 +10°C° 0 mm 1 mps 543 mmHg 90%
01:00 +9°C° 0 mm 0 mps 543 mmHg 91%
02:00 +9°C° 0 mm 0 mps 543 mmHg 89%
03:00 +9°C° 0 mm 0 mps 543 mmHg 88%
04:00 +9°C° 0 mm 0 mps 543 mmHg 86%
05:00 +10°C° 0 mm 0 mps 544 mmHg 83%
06:00 +10°C° 0 mm 0 mps 544 mmHg 81%
07:00 +10°C° 0 mm 0 mps 545 mmHg 78%
08:00 +13°C° 0 mm 1 mps 545 mmHg 71%
09:00 +14°C° 0 mm 1 mps 546 mmHg 64%
10:00 +15°C° 0 mm 2 mps 547 mmHg 57%
11:00 +16°C° 0 mm 2 mps 547 mmHg 54%
12:00 +18°C° 0 mm 2 mps 546 mmHg 51%
13:00 +19°C° 0 mm 3 mps 546 mmHg 48%
14:00 +19°C° 0 mm 3 mps 546 mmHg 48%
15:00 +19°C° 0 mm 3 mps 545 mmHg 48%
16:00 +18°C° 0 mm 2 mps 545 mmHg 48%
17:00 +16°C° 0 mm 2 mps 544 mmHg 59%
18:00 +14°C° 0 mm 2 mps 544 mmHg 69%
19:00 +12°C° 0 mm 1 mps 543 mmHg 80%
20:00 +12°C° 0 mm 1 mps 544 mmHg 83%
21:00 +11°C° 0 mm 1 mps 544 mmHg 87%
22:00 +10°C° 0 mm 1 mps 544 mmHg 90%
23:00 +11°C° 0 mm 1 mps 544 mmHg 90%

20 June, Sunday

Time Temperature Precipitation Wind Pressure Humidity
00:00 +11°C° 0 mm 1 mps 544 mmHg 90%
01:00 +11°C° 0 mm 1 mps 544 mmHg 90%
02:00 +10°C° 0 mm 0 mps 544 mmHg 89%
03:00 +10°C° 0 mm 0 mps 544 mmHg 87%
04:00 +10°C° 0 mm 0 mps 544 mmHg 86%
05:00 +10°C° 0 mm 0 mps 545 mmHg 84%
06:00 +11°C° 0 mm 0 mps 545 mmHg 82%
07:00 +11°C° 0 mm 0 mps 545 mmHg 80%
08:00 +12°C° 0 mm 0 mps 546 mmHg 72%
09:00 +15°C° 0 mm 1 mps 546 mmHg 65%
10:00 +16°C° 0 mm 1 mps 547 mmHg 57%
11:00 +17°C° 0 mm 2 mps 547 mmHg 55%
12:00 +18°C° 0 mm 2 mps 547 mmHg 52%
13:00 +18°C° 0 mm 3 mps 546 mmHg 50%
14:00 +18°C° 0 mm 3 mps 546 mmHg 51%
15:00 +18°C° 0 mm 3 mps 545 mmHg 52%
16:00 +18°C° 0 mm 3 mps 545 mmHg 54%
17:00 +16°C° 0 mm 2 mps 545 mmHg 64%
18:00 +14°C° 0 mm 2 mps 544 mmHg 74%
19:00 +12°C° 0 mm 1 mps 544 mmHg 84%
20:00 +11°C° 0 mm 1 mps 544 mmHg 87%
21:00 +11°C° 0 mm 1 mps 544 mmHg 90%
22:00 +10°C° 0 mm 1 mps 544 mmHg 93%
23:00 +10°C° 0 mm 1 mps 544 mmHg 92%
Show more